Regional Weather Roundup
Issued by NWS Little Rock, AR

Home | Current Version | Previous Version | Graphics & Text | Print | Product List | Glossary On
Versions: 1 2 3 4 5 6 7 8 9 10 11 12 13 14 15 16 17 18 19 20 21 22 23 24 25 26 27 28 29 30 31 32 33 34 35 36 37 38 39 40 41 42 43 44 45 46 47 48 49 50
606
ASUS44 KLZK 260705
RWRLZK

WEATHER ROUNDUP FOR ARKANSAS
NATIONAL WEATHER SERVICE LITTLE ROCK AR
200 AM CDT THU MAY 26 2016

NOTE: "FAIR" INDICATES FEW OR NO CLOUDS BELOW 12,000 FEET WITH NO
SIGNIFICANT WEATHER AND/OR OBSTRUCTIONS TO VISIBILITY.

ARZ001-003-010-029-260800-
NORTHWEST ARKANSAS

CITY           SKY/WX    TMP DP  RH WIND       PRES   REMARKS
FAYETTEVILLE   CLEAR     74  73  97 S14       29.96F
FORT SMITH     PTCLDY    75  71  87 CALM      29.93F
HARRISON       CLOUDY    70  69  97 SE3       30.00S
BENTONVILLE    MOCLDY    73  70  88 S5        29.97S
ROGERS           N/A     72  71  97 SE6       29.98S
SILOAM SPGS    MOCLDY    73  64  73 S8        29.96S
HIGHFILL       CLOUDY    74  73  97 S7        29.96F
$$

ARZ004-005-016-260800-
NORTH CENTRAL ARKANSAS

CITY           SKY/WX    TMP DP  RH WIND       PRES   REMARKS
BATESVILLE     PTCLDY    73  70  88 S7        30.00F
FLIPPIN        CLOUDY   N/A N/A N/A CALM      29.95F
MTN HOME       CLOUDY    71  69  93 SE7       29.98F
$$

ARZ040-041-260800-
WEST CENTRAL ARKANSAS

CITY           SKY/WX    TMP DP  RH WIND       PRES   REMARKS
MENA           CLOUDY    81  77  89 S7G20     30.00F HX  88
MOUNT IDA      MOCLDY    80  72  76 S9        29.98S
$$

ARZ009-017-025-026-028-260800-
NORTHEAST ARKANSAS

CITY           SKY/WX    TMP DP  RH WIND       PRES   REMARKS
CORNING          N/A     70  70 100 S6        30.02S
JONESBORO      PTCLDY    72  68  87 S6        30.01S
NEWPORT        PTCLDY    74  72  93 S7        30.01F
WALNUT RIDGE   CLEAR     72  66  83 S6        30.01S
BLYTHEVILLE    CLEAR     68  63  84 S8        30.03S
$$

ARZ022-023-033-042-044-260800-
CENTRAL ARKANSAS

CITY           SKY/WX    TMP DP  RH WIND       PRES   REMARKS
LITTLE ROCK    PTCLDY    78  73  84 S9        30.01S
N LITTLE ROCK    N/A     76  73  90 S6        29.99F
JACKSONVILLE   CLEAR     76  74  92 S5        30.00S
SEARCY         MOCLDY    75  72  90 SW3       30.02F
HOT SPRINGS    MOCLDY    78  73  84 VRB7      30.01F
RUSSELLVILLE   CLOUDY    76  74  93 VRB3      29.98F
CLINTON        FAIR      68  68 100 CALM      30.00F FOG
$$

ARZ036-260800-
EAST ARKANSAS

CITY           SKY/WX    TMP DP  RH WIND       PRES   REMARKS
WEST MEMPHIS   CLEAR     70  65  84 S6        30.02R
$$

ARZ050-053-066-070-073-260800-
SOUTHWEST ARKANSAS

CITY           SKY/WX    TMP DP  RH WIND       PRES   REMARKS
ARKADELPHIA    FAIR      75  75 100 S5        30.01F
CAMDEN         PTCLDY    73  70  88 SE3       30.02F FOG
TEXARKANA      CLOUDY    78  72  81 S10       30.00F
EL DORADO      CLOUDY    76  73  91 S6        30.03F
DE QUEEN       CLOUDY    80  74  81 S8        29.96F HX  85
$$

ARZ056-057-069-260800-
SOUTHEAST ARKANSAS

CITY           SKY/WX    TMP DP  RH WIND       PRES   REMARKS
PINE BLUFF     CLEAR     76  71  85 S13       30.02F
STUTTGART      PTCLDY    79  66  65 S12       30.03S
MONTICELLO     CLEAR     74  70  87 S5        30.04F

$$






USA.gov is the U.S. government's official web portal to all federal, state and local government web resources and services.